| time (UTC) | temp F | wind direction | speed knots | gust knots | rain 1hr in | rain 24hr in | rain mn in | humidity % | barometer mb |
| 20260503050036 | 66 | 334 | 1.7 | 9.6 | 0.00 | 0.00 | 0.00 | 36 | 1012.8 |
| 20260503044537 | 66 | 269 | 2.6 | 9.6 | 0.00 | 0.00 | 0.00 | 33 | 1012.8 |
| 20260503043047 | 67 | 352 | 1.7 | 10.4 | 0.00 | 0.00 | 0.00 | 32 | 1012.7 |
| 20260503041538 | 67 | 0 | 0.0 | 5.2 | 0.00 | 0.00 | 0.00 | 31 | 1012.8 |
| 20260503040052 | 68 | 315 | 0.9 | 7.8 | 0.00 | 0.00 | 0.00 | 32 | 1012.8 |
| 20260503034538 | 68 | 0 | 0.0 | 5.2 | 0.00 | 0.00 | 0.00 | 30 | 1012.6 |
| 20260503033036 | 68 | 324 | 1.7 | 5.2 | 0.00 | 0.00 | 0.00 | 29 | 1012.0 |
| 20260503031537 | 68 | 154 | 1.7 | 7.0 | 0.00 | 0.00 | 0.00 | 27 | 1011.6 |
| 20260503030037 | 69 | 347 | 3.5 | 7.8 | 0.00 | 0.00 | 0.00 | 26 | 1011.2 |
| 20260503024538 | 68 | 355 | 3.5 | 7.0 | 0.00 | 0.00 | 0.00 | 28 | 1011.0 |
| 20260503023038 | 68 | 326 | 1.7 | 7.0 | 0.00 | 0.00 | 0.00 | 30 | 1011.0 |
| 20260503021550 | 68 | 334 | 2.6 | 7.0 | 0.00 | 0.00 | 0.00 | 31 | 1011.1 |
| 20260503020042 | 69 | 297 | 2.6 | 7.8 | 0.00 | 0.00 | 0.00 | 30 | 1011.1 |
| 20260503014537 | 69 | 0 | 0.9 | 5.2 | 0.00 | 0.00 | 0.00 | 29 | 1011.2 |
| 20260503013102 | 70 | 320 | 0.9 | 7.8 | 0.00 | 0.00 | 0.00 | 30 | 1011.2 |
| 20260503004608 | 71 | 328 | 0.9 | 3.5 | 0.00 | 0.00 | 0.00 | 26 | 1011.0 |
| 20260503003051 | 72 | 0 | 0.0 | 0.9 | 0.00 | 0.00 | 0.00 | 27 | 1011.2 |
| 20260503000040 | 73 | 0 | 0.0 | 4.3 | 0.00 | 0.00 | 0.00 | 24 | 1011.1 |
| 20260502234538 | 74 | 127 | 1.7 | 6.1 | 0.00 | 0.00 | 0.00 | 24 | 1011.2 |
| 20260502233037 | 75 | 0 | 0.9 | 3.5 | 0.00 | 0.00 | 0.00 | 23 | 1011.3 |
| 20260502231536 | 75 | 0 | 0.0 | 7.8 | 0.00 | 0.00 | 0.00 | 21 | 1011.3 |
| 20260502230034 | 76 | 270 | 0.9 | 4.3 | 0.00 | 0.00 | 0.00 | 23 | 1011.5 |
| 20260502224537 | 76 | 0 | 0.0 | 3.5 | 0.00 | 0.00 | 0.00 | 19 | 1011.6 |
| 20260502223037 | 75 | 0 | 0.9 | 7.0 | 0.00 | 0.00 | 0.00 | 19 | 1011.6 |
| 20260502221538 | 75 | 344 | 2.6 | 7.0 | 0.00 | 0.00 | 0.00 | 22 | 1011.7 |
| 20260502220038 | 75 | 288 | 0.9 | 7.0 | 0.00 | 0.00 | 0.00 | 21 | 1012.0 |
| 20260502214537 | 77 | 300 | 0.9 | 4.3 | 0.00 | 0.00 | 0.00 | 20 | 1012.0 |
| 20260502213048 | 77 | 0 | 0.0 | 4.3 | 0.00 | 0.00 | 0.00 | 21 | 1012.3 |
| 20260502211538 | 76 | 199 | 1.7 | 6.1 | 0.00 | 0.00 | 0.00 | 21 | 1012.5 |
| 20260502210039 | 76 | 224 | 1.7 | 6.1 | 0.00 | 0.00 | 0.00 | 20 | 1012.7 |
| 20260502204539 | 77 | 316 | 2.6 | 6.1 | 0.00 | 0.00 | 0.00 | 25 | 1012.8 |
| 20260502203040 | 76 | 11 | 1.7 | 6.1 | 0.00 | 0.00 | 0.00 | 20 | 1013.1 |
| 20260502201536 | 76 | 350 | 2.6 | 6.1 | 0.00 | 0.00 | 0.00 | 23 | 1013.3 |
| 20260502200055 | 76 | 323 | 0.9 | 5.2 | 0.00 | 0.00 | 0.00 | 24 | 1013.6 |
| 20260502194549 | 76 | 0 | 0.9 | 7.0 | 0.00 | 0.00 | 0.00 | 27 | 1013.6 |
| 20260502193037 | 76 | 0 | 0.0 | 3.5 | 0.00 | 0.00 | 0.00 | 19 | 1013.8 |
| 20260502191536 | 75 | 0 | 0.9 | 4.3 | 0.00 | 0.00 | 0.00 | 21 | 1014.0 |
| 20260502190038 | 76 | 0 | 0.9 | 3.5 | 0.00 | 0.00 | 0.00 | 19 | 1014.1 |
| 20260502184536 | 74 | 144 | 0.0 | 2.6 | 0.00 | 0.00 | 0.00 | 25 | 1014.5 |
| 20260502183043 | 74 | 0 | 0.0 | 4.3 | 0.00 | 0.00 | 0.00 | 24 | 1014.6 |
| 20260502181537 | 74 | 274 | 0.9 | 2.6 | 0.00 | 0.00 | 0.00 | 21 | 1014.8 |
| 20260502163038 | 66 | 135 | 0.0 | 3.5 | 0.00 | 0.00 | 0.00 | 33 | 1014.9 |
| 20260502161542 | 65 | 0 | 0.9 | 3.5 | 0.00 | 0.00 | 0.00 | 31 | 1014.8 |
| 20260502151537 | 56 | 0 | 0.0 | 0.0 | 0.00 | 0.00 | 0.00 | 45 | 1014.7 |
| 20260502123038 | 42 | 0 | 0.0 | 0.9 | 0.00 | 0.00 | 0.00 | 59 | 1013.7 |
| 20260502121537 | 42 | 0 | 0.0 | 0.0 | 0.00 | 0.00 | 0.00 | 57 | 1013.6 |
| 20260502114539 | 42 | 0 | 0.0 | 0.0 | 0.00 | 0.00 | 0.00 | 63 | 1013.6 |
| 20260502113043 | 42 | 0 | 0.0 | 0.9 | 0.00 | 0.00 | 0.00 | 60 | 1013.7 |
| 20260502111534 | 42 | 340 | 0.0 | 0.9 | 0.00 | 0.00 | 0.00 | 61 | 1013.7 |
| 20260502110037 | 41 | 0 | 0.0 | 0.9 | 0.00 | 0.00 | 0.00 | 60 | 1013.6 |
| 20260502104536 | 41 | 0 | 0.0 | 0.0 | 0.00 | 0.00 | 0.00 | 59 | 1013.6 |
| 20260502103059 | 40 | 0 | 0.0 | 0.0 | 0.00 | 0.00 | 0.00 | 55 | 1013.6 |
| 20260502101548 | 41 | 0 | 0.0 | 0.0 | 0.00 | 0.00 | 0.00 | 51 | 1013.5 |
| 20260502070037 | 47 | 0 | 0.0 | 0.0 | 0.00 | 0.00 | 0.00 | 48 | 1014.3 |
| 20260502064537 | 47 | 0 | 0.0 | 0.0 | 0.00 | 0.00 | 0.00 | 47 | 1014.2 |
| 20260502063045 | 49 | 0 | 0.0 | 0.0 | 0.00 | 0.00 | 0.00 | 44 | 1014.2 |
| 20260502061539 | 50 | 0 | 0.0 | 0.0 | 0.00 | 0.00 | 0.00 | 44 | 1014.2 |
| 20260502060039 | 51 | 0 | 0.0 | 0.0 | 0.00 | 0.00 | 0.00 | 40 | 1014.2 |
| 20260502054550 | 52 | 0 | 0.0 | 0.0 | 0.00 | 0.00 | 0.00 | 42 | 1014.3 |
| 20260502053046 | 52 | 0 | 0.0 | 0.0 | 0.00 | 0.00 | 0.00 | 37 | 1014.3 |
| 20260502051538 | 52 | 0 | 0.0 | 0.0 | 0.00 | 0.00 | 0.00 | 35 | 1014.3 |